TimeCDT,TemperatureF,Dew PointF,Humidity,Sea Level PressureIn,VisibilityMPH,Wind Direction,Wind SpeedMPH,Gust SpeedMPH,PrecipitationIn,Events,Conditions,WindDirDegrees,DateUTC
12:15 AM,55.4,51.8,88,30.09,10.0,North,5.8,-,N/A,,Clear,360,2013-07-27 05:15:00
12:35 AM,53.6,50.0,88,30.09,10.0,North,4.6,-,N/A,,Clear,350,2013-07-27 05:35:00
12:55 AM,53.6,50.0,88,30.09,10.0,North,6.9,-,N/A,,Clear,360,2013-07-27 05:55:00
1:15 AM,53.6,50.0,88,30.09,10.0,North,5.8,-,N/A,,Partly Cloudy,350,2013-07-27 06:15:00
1:35 AM,53.6,50.0,88,30.09,10.0,North,4.6,-,N/A,,Partly Cloudy,350,2013-07-27 06:35:00
1:55 AM,53.6,50.0,88,30.09,10.0,NW,5.8,-,N/A,,Clear,320,2013-07-27 06:55:00
2:15 AM,53.6,50.0,88,30.09,10.0,NW,4.6,-,N/A,,Partly Cloudy,320,2013-07-27 07:15:00
2:35 AM,53.6,50.0,88,30.09,10.0,NW,5.8,-,N/A,,Mostly Cloudy,320,2013-07-27 07:35:00
2:55 AM,53.6,50.0,88,30.09,10.0,NNW,5.8,-,N/A,,Scattered Clouds,330,2013-07-27 07:55:00
3:15 AM,51.8,50.0,94,30.08,10.0,NNW,6.9,-,N/A,,Clear,340,2013-07-27 08:15:00
3:35 AM,51.8,50.0,94,30.08,10.0,NNW,6.9,-,N/A,,Clear,330,2013-07-27 08:35:00
3:55 AM,51.8,50.0,94,30.08,10.0,NNW,6.9,-,N/A,,Clear,330,2013-07-27 08:55:00
4:15 AM,50.0,48.2,94,30.08,10.0,NNW,6.9,-,N/A,,Clear,330,2013-07-27 09:15:00
4:35 AM,50.0,48.2,94,30.09,10.0,NNW,6.9,-,N/A,,Clear,330,2013-07-27 09:35:00
4:55 AM,50.0,48.2,94,30.09,10.0,NNW,5.8,-,N/A,,Clear,330,2013-07-27 09:55:00
5:15 AM,50.0,48.2,94,30.09,10.0,NNW,6.9,-,N/A,,Scattered Clouds,330,2013-07-27 10:15:00
5:35 AM,50.0,48.2,94,30.09,10.0,NNW,8.1,-,N/A,,Mostly Cloudy,340,2013-07-27 10:35:00
5:55 AM,50.0,48.2,94,30.09,10.0,North,8.1,-,N/A,,Mostly Cloudy,350,2013-07-27 10:55:00
6:15 AM,50.0,48.2,94,30.09,10.0,North,6.9,12.7,N/A,,Mostly Cloudy,350,2013-07-27 11:15:00
6:35 AM,50.0,48.2,94,30.10,10.0,NNW,5.8,-,N/A,,Scattered Clouds,340,2013-07-27 11:35:00
6:55 AM,51.8,48.2,88,30.10,10.0,NNW,8.1,-,N/A,,Scattered Clouds,340,2013-07-27 11:55:00
7:15 AM,51.8,48.2,88,30.10,10.0,North,9.2,-,N/A,,Scattered Clouds,350,2013-07-27 12:15:00
7:35 AM,51.8,48.2,88,30.10,10.0,North,10.4,-,N/A,,Mostly Cloudy,350,2013-07-27 12:35:00
7:55 AM,51.8,48.2,88,30.11,10.0,NNW,9.2,-,N/A,,Overcast,340,2013-07-27 12:55:00
8:15 AM,53.6,48.2,82,30.11,10.0,NNW,9.2,-,N/A,,Overcast,340,2013-07-27 13:15:00
8:35 AM,53.6,48.2,82,30.10,10.0,North,10.4,16.1,N/A,,Mostly Cloudy,350,2013-07-27 13:35:00
8:55 AM,55.4,46.4,72,30.10,10.0,North,12.7,-,N/A,,Mostly Cloudy,360,2013-07-27 13:55:00
9:15 AM,55.4,46.4,72,30.11,10.0,North,11.5,-,N/A,,Overcast,350,2013-07-27 14:15:00
9:35 AM,57.2,46.4,67,30.10,10.0,North,11.5,-,N/A,,Scattered Clouds,360,2013-07-27 14:35:00
9:55 AM,59.0,44.6,59,30.10,10.0,North,10.4,18.4,N/A,,Scattered Clouds,360,2013-07-27 14:55:00
10:15 AM,59.0,42.8,55,30.10,10.0,North,15.0,24.2,N/A,,Mostly Cloudy,360,2013-07-27 15:15:00
10:35 AM,59.0,42.8,55,30.09,10.0,North,12.7,20.7,N/A,,Mostly Cloudy,360,2013-07-27 15:35:00
10:55 AM,60.8,42.8,52,30.09,10.0,NNW,11.5,24.2,N/A,,Mostly Cloudy,340,2013-07-27 15:55:00
11:15 AM,60.8,42.8,52,30.09,10.0,NNW,12.7,23.0,N/A,,Mostly Cloudy,330,2013-07-27 16:15:00
11:35 AM,60.8,42.8,52,30.08,10.0,NNW,17.3,-,N/A,,Mostly Cloudy,330,2013-07-27 16:35:00
11:55 AM,60.8,42.8,52,30.07,10.0,NNW,16.1,-,N/A,,Scattered Clouds,340,2013-07-27 16:55:00
12:15 PM,60.8,42.8,52,30.07,10.0,NNW,15.0,-,N/A,,Mostly Cloudy,340,2013-07-27 17:15:00
12:35 PM,60.8,42.8,52,30.07,10.0,NNW,15.0,23.0,N/A,,Overcast,330,2013-07-27 17:35:00
12:55 PM,62.6,42.8,48,30.07,10.0,NNW,11.5,20.7,N/A,,Mostly Cloudy,340,2013-07-27 17:55:00
1:15 PM,62.6,42.8,48,30.07,10.0,NNW,10.4,18.4,N/A,,Mostly Cloudy,330,2013-07-27 18:15:00
1:35 PM,64.4,42.8,45,30.06,10.0,NNW,8.1,18.4,N/A,,Mostly Cloudy,340,2013-07-27 18:35:00
1:55 PM,64.4,42.8,45,30.06,10.0,NW,11.5,19.6,N/A,,Scattered Clouds,320,2013-07-27 18:55:00
2:15 PM,64.4,41.0,42,30.05,10.0,NNW,10.4,18.4,N/A,,Partly Cloudy,340,2013-07-27 19:15:00
2:35 PM,66.2,41.0,40,30.04,10.0,NW,15.0,21.9,N/A,,Partly Cloudy,320,2013-07-27 19:35:00
2:55 PM,64.4,41.0,42,30.04,10.0,NNW,12.7,21.9,N/A,,Scattered Clouds,330,2013-07-27 19:55:00
3:15 PM,66.2,41.0,40,30.04,10.0,North,12.7,-,N/A,,Mostly Cloudy,350,2013-07-27 20:15:00
3:35 PM,66.2,41.0,40,30.03,10.0,NNW,16.1,23.0,N/A,,Mostly Cloudy,340,2013-07-27 20:35:00
3:55 PM,66.2,41.0,40,30.03,10.0,NW,11.5,20.7,N/A,,Mostly Cloudy,310,2013-07-27 20:55:00
4:15 PM,66.2,42.8,43,30.02,10.0,NNW,11.5,21.9,N/A,,Overcast,340,2013-07-27 21:15:00
4:35 PM,66.2,42.8,43,30.02,10.0,NNW,16.1,-,N/A,,Overcast,340,2013-07-27 21:35:00
4:55 PM,66.2,42.8,43,30.02,10.0,NW,11.5,17.3,N/A,,Overcast,320,2013-07-27 21:55:00
5:15 PM,66.2,42.8,43,30.01,10.0,NW,11.5,17.3,N/A,,Mostly Cloudy,320,2013-07-27 22:15:00
5:35 PM,68.0,41.0,37,30.01,10.0,WNW,12.7,23.0,N/A,,Scattered Clouds,300,2013-07-27 22:35:00
5:55 PM,68.0,42.8,40,30.00,10.0,WNW,15.0,23.0,N/A,,Mostly Cloudy,300,2013-07-27 22:55:00
6:15 PM,68.0,42.8,40,30.00,10.0,NNW,11.5,19.6,N/A,,Partly Cloudy,330,2013-07-27 23:15:00
6:35 PM,68.0,42.8,40,29.99,10.0,NNW,11.5,17.3,N/A,,Partly Cloudy,330,2013-07-27 23:35:00
6:55 PM,68.0,42.8,40,29.99,10.0,NNW,15.0,20.7,N/A,,Partly Cloudy,330,2013-07-27 23:55:00
7:15 PM,66.2,42.8,43,29.99,10.0,NW,10.4,18.4,N/A,,Partly Cloudy,320,2013-07-28 00:15:00
7:35 PM,66.2,44.6,46,29.99,10.0,NW,10.4,-,N/A,,Clear,320,2013-07-28 00:35:00
7:55 PM,64.4,44.6,49,29.99,10.0,NW,10.4,16.1,N/A,,Clear,320,2013-07-28 00:55:00
8:15 PM,64.4,44.6,49,29.99,10.0,NW,8.1,-,N/A,,Clear,320,2013-07-28 01:15:00
8:35 PM,62.6,44.6,52,29.99,10.0,NW,6.9,-,N/A,,Partly Cloudy,320,2013-07-28 01:35:00
8:55 PM,59.0,48.2,67,29.99,10.0,WNW,5.8,-,N/A,,Mostly Cloudy,300,2013-07-28 01:55:00
9:15 PM,59.0,48.2,67,29.99,10.0,West,6.9,-,N/A,,Overcast,280,2013-07-28 02:15:00
9:35 PM,60.8,48.2,63,29.99,-9999.0,West,6.9,-,N/A,,Overcast,280,2013-07-28 02:35:00
9:55 PM,59.0,48.2,67,30.00,10.0,WNW,5.8,-,N/A,,Mostly Cloudy,290,2013-07-28 02:55:00
10:15 PM,59.0,48.2,67,30.00,10.0,West,8.1,-,N/A,,Mostly Cloudy,280,2013-07-28 03:15:00
10:35 PM,59.0,48.2,67,30.00,10.0,WNW,8.1,-,N/A,,Overcast,290,2013-07-28 03:35:00
10:55 PM,57.2,48.2,72,30.00,10.0,West,9.2,-,N/A,,Scattered Clouds,280,2013-07-28 03:55:00
11:15 PM,57.2,48.2,72,30.00,10.0,West,9.2,-,N/A,,Clear,280,2013-07-28 04:15:00
11:35 PM,55.4,48.2,77,30.00,10.0,West,9.2,-,N/A,,Clear,280,2013-07-28 04:35:00
11:55 PM,55.4,48.2,77,29.99,10.0,WNW,6.9,-,N/A,,Clear,290,2013-07-28 04:55:00